[Iaude] MPEC G37: 2024 GH [a=1.53,e=0.39,i=11.2,H=26.1]

mpec at cfa.harvard.edu mpec at cfa.harvard.edu
Wed Apr 3 20:40:05 EDT 2024


M.P.E.C. 2024-G37                                 Issued 2024 April 4, 00:38 UT

     The Minor Planet Electronic Circulars contain information on unusual
         minor planets, routine data on comets and natural satellites,
         and occasional editorial announcements.  They are published
    on behalf of Division F of the International Astronomical Union by the
          Minor Planet Center, Smithsonian Astrophysical Observatory,
                          Cambridge, MA 02138, U.S.A.
			  
             Prepared using the Tamkin Foundation Computer Network

                              MPC at CFA.HARVARD.EDU
            URL https://www.minorplanetcenter.net/    ISSN 1523-6714

                                    2024 GH                                     


Observations:
     K24G00H* C2024 04 01.37428113 37 43.405+15 35 51.84         20.26wXEG037F52
     K24G00H  C2024 04 01.39901513 37 32.507+15 25 28.42         20.38wXEG037F52
     K24G00H  C2024 04 01.41137813 37 27.017+15 20 17.14         20.36wXEG037F52
     K24G00H  C2024 04 01.53177813 36 33.480+14 29 54.32         19.24GVEG037F52
     K24G00H  C2024 04 01.53242913 36 33.189+14 29 37.75         20.03GVEG037F52
     K24G00H KB2024 04 01.98708013 34 06.48 +11 24 35.5          19.4 GXEG037958
     K24G00H KB2024 04 01.99148513 34 04.75 +11 22 52.0          19.8 GXEG037958
     K24G00H KB2024 04 01.99584513 34 03.07 +11 21 10.8          19.5 GXEG037958
     K24G00H KC2024 04 02.99657513 28 58.37 +05 14 27.1          20.2 GVEG037L01
     K24G00H KC2024 04 02.99805813 28 57.87 +05 13 56.8          20.3 GVEG037L01
     K24G00H KC2024 04 02.99954013 28 57.38 +05 13 26.5          20.3 GVEG037L01
     K24G00H IC2024 04 03.00102613 28 56.87 +05 12 56.3          20.1 GVEG037L01
     K24G00H IC2024 04 03.00251213 28 56.35 +05 12 25.4          20.2 GVEG037L01
     K24G00H KC2024 04 03.82700213 25 29.65 +00 48 04.5          20.3 GVEG037L06
     K24G00H KC2024 04 03.82782413 25 29.46 +00 47 50.8          20.2 GVEG037L06
     K24G00H KC2024 04 03.82809813 25 29.38 +00 47 44.9          20.0 GVEG037L06
     K24G00H KB2024 04 03.87202413 25 18.38 +00 34 38.5          20.4 GXEG037I93
     K24G00H KB2024 04 03.88420613 25 14.99 +00 31 00.3          20.4 GXEG037I93

Observer details:
958 Observatoire de Dax.  Observer P. Dupouy.  0.50-m f/4.5 Reflector + CMO.
F52 Pan-STARRS 2, Haleakala.  Observers J. Herman, T. Lowe, P. Minguez, A.
    Schultz, I. Smith.  Measurers K. Chambers, T. de Boer, J. Fairlamb, H.
    Gao, M. Huber, C.-C. Lin, E. Magnier, Y. Ramanjooloo, R. Wainscoat, R.
    Weryk.  1.8-m Ritchey-Chretien + CCD.
I93 St Pardon de Conques.  Observer F. Losse.  0.40-m f/3.7 reflector + CCD.
L01 Visnjan Observatory, Tican.  Observer K. Korlevic.  1.0-m f/2.9 reflector
    + CCD.
L06 Sormano 2 Observatory, Bellagio Via Lattea.  Observers E. Valli, G.
    Ventre.  Measurer P. Sicoli.  0.36m Schmidt Cassegrain + CCD.

Orbital elements:
2024 GH                                                  Earth MOID = 0.0367 AU
Epoch 2024 Mar. 31.0 TT = JDT 2460400.5                 Veres                   
M  20.73655              (2000.0)            P               Q                  
n   0.52110276     Peri.  126.09135     -0.79062084     -0.60980653             
a   1.5293978      Node    16.56313     +0.48075980     -0.67413150             
e   0.3879861      Incl.   11.17922     +0.37919482     -0.41675259             
P   1.89           H   26.11          G   0.15           U   9                  
Residuals in seconds of arc
240401 F52  0.3+  0.5-    240401 958  0.5-  0.5-    240403 L01  0.2-  0.3-
240401 F52  0.2+  0.8-    240401 958  0.2-  0.7+    240403 L06  0.4-  0.5-
240401 F52  0.1+  0.8-    240402 L01  0.2+  0.1-    240403 L06  0.0   0.7+
240401 F52  0.1+  0.3+    240402 L01  0.2+  0.0     240403 L06  0.0   0.3-
240401 F52  0.0   0.0     240402 L01  0.3+  0.0     240403 I93  0.8+  0.2+
240401 958  0.3-  0.4-    240403 L01  0.1+  0.2+    240403 I93  0.4+  0.1+

Ephemeris:
2024 GH                  a,e,i = 1.53, 0.39, 11                  q = 0.9360
Date    TT    R. A. (2000) Decl.     Delta      r    Elong.  Phase     V
2024 03 05    00 00 13.3 +60 34 28   0.1364  0.9483    67.6   104.8    25.5
...
2024 03 20    21 17 36.2 +77 33 23   0.06316 0.9876    80.7    95.7    23.5
...
2024 03 28    14 21 13.8 +50 57 42   0.03740 1.0178   120.9    57.3    21.1
...
2024 04 03    13 28 57.9 +05 15 38   0.04530 1.0438   165.5    13.8    20.3
2024 04 04    13 24 40.6 -00 00 54   0.04888 1.0483   170.3     9.3    20.3
2024 04 05    13 20 58.5 -04 32 18   0.05286 1.0530   173.7     5.9    20.3
...
2024 04 11    13 06 30.0 -20 56 33   0.08184 1.0820   167.0    12.0    21.6
...
2024 04 19    12 57 55.0 -29 33 25   0.1274  1.1236   158.2    19.4    22.9
...
2024 05 04    12 56 17.5 -34 18 03   0.2246  1.2072   149.5    25.1    24.4

M. P. C. Staff               (C) Copyright 2024 MPC           M.P.E.C. 2024-G37





More information about the Iaude mailing list